This is the latest recevied weather packets stored in our database for station/object KI6AOK. If no packets are shown the sender has not sent any weather packets the latest 10 day(s).
| Time | Temp. | Humidity | Pressure | Rain* | Wind** | Luminosity | Snow |
|---|---|---|---|---|---|---|---|
| 1777912257 | 17.22° C | 63% | 1015.9 hPa | 0 mm | - | 574 W/m² | - |
| 1777911953 | 16.67° C | 65% | 1015.7 hPa | 0 mm | - | 287 W/m² | - |
| 1777911649 | 17.22° C | 65% | 1015.6 hPa | 0 mm | - | 222 W/m² | - |
| 1777911345 | 16.67° C | 66% | 1015.8 hPa | 0 mm | - | 240 W/m² | - |
| 1777911043 | 16.67° C | 67% | 1015.7 hPa | 0 mm | - | 253 W/m² | - |
| 1777910740 | 17.22° C | 65% | 1015.8 hPa | 0 mm | - | 176 W/m² | - |
| 1777910437 | 16.67° C | 65% | 1015.5 hPa | 0 mm | - | 506 W/m² | - |
| 1777910133 | 16.67° C | 66% | 1015.7 hPa | 0 mm | - | 407 W/m² | - |
| 1777909832 | 16.67° C | 68% | 1015.5 hPa | 0 mm | - | 220 W/m² | - |
| 1777909527 | 16.11° C | 68% | 1015.4 hPa | 0 mm | - | 361 W/m² | - |
| 1777909225 | 16.11° C | 69% | 1015.4 hPa | 0 mm | - | 422 W/m² | - |
| 1777908923 | 16.11° C | 70% | 1015.5 hPa | 0 mm | - | 226 W/m² | - |
| 1777908621 | 16.11° C | 70% | 1015.5 hPa | 0 mm | - | 151 W/m² | - |
| 1777908317 | 16.11° C | 69% | 1015.3 hPa | 0 mm | - | 304 W/m² | - |
| 1777908014 | 16.11° C | 69% | 1015.5 hPa | 0 mm | - | 453 W/m² | - |
| 1777907709 | 15.56° C | 73% | 1015.5 hPa | 0 mm | - | 357 W/m² | - |
| 1777907404 | 15° C | 74% | 1015.5 hPa | 0 mm | - | 251 W/m² | - |
| 1777907101 | 14.44° C | 75% | 1015.4 hPa | 0 mm | - | 112 W/m² | - |
| 1777906799 | 14.44° C | 75% | 1015.4 hPa | 0 mm | - | 103 W/m² | - |
| 1777906496 | 14.44° C | 76% | 1015.4 hPa | 0 mm | - | 106 W/m² | - |
| 1777906192 | 14.44° C | 77% | 1015.4 hPa | 0 mm | - | 124 W/m² | - |
| 1777905889 | 13.89° C | 78% | 1015.3 hPa | 0 mm | - | 71 W/m² | - |
| 1777905585 | 13.89° C | 79% | 1015.3 hPa | 0 mm | - | 77 W/m² | - |
| 1777905282 | 13.89° C | 79% | 1015.3 hPa | 0 mm | - | 66 W/m² | - |
| 1777904980 | 13.89° C | 81% | 1015.2 hPa | 0 mm | - | 87 W/m² | - |
* Rain latest hour (hover to see other rain measurements)
** Current wind speed in m/s (hover to see current wind gust speed)